Torna al catalogo

SL-12 R/B(2)

AttivoGEO
NORAD 26101·ROCKET BODY·🇷🇺 Russia

Lanciato Mar 12, 2000 da Baikonur Cosmodrome

Loading…

TLE

AggiornatoSource: Space-Track

Epoca: Sep 14, 2026, 12:30 UTC

1 26101U 00013D   26257.52088941  .00000094  00000-0  00000-0 0  9996
2 26101  14.3498   0.1048 0005885  80.0696 293.8753  1.00754671 97542

Traccia SL-12 R/B(2) in tempo reale con AllMySat

Download on the App Store